Wind_Speed
20 21 20 17 15 14 11 8 6 4 3 4 5 6 6 9 10 10 9 9 9 9 8 6 6 7 6 7 6 7 6 5 9 11 10 11 13 13 15 15 13 13 15
17 23 22 19 17 14 14 12 9 7 7 6 5 6 7 6 7 9 9 8 10 9 9 9 8 6 7 7 7 8 8 7 8 11 11 11 11 12 14 14 12 14 14
11 15 19 17 16 14 14 13 13 11 10 8 9 7 7 7 7 10 9 10 9 9 10 9 8 9 8 7 7 8 9 7 8 10 13 12 12 11 13 12 13 14 14
8 4 10 16 16 13 14 15 13 11 10 8 8 8 7 8 8 8 9 10 11 11 10 11 10 11 10 9 10 10 10 12 11 12 15 14 13 12 11 11 15 16 18
2 1 3 6 11 10 9 9 9 8 7 6 6 7 8 8 7 8 10 10 9 10 10 10 12 12 12 12 12 11 11 12 13 14 15 15 15 14 14 14 15 19 18
19 18 16 12 13 11 10 12 11 10 8 5 4 2 3 4 10 13 13 12 10 11 11 10 9 11 9 12 12 12 12 14 14 14 15 15 16 15 15 16 18 19 19
21 20 19 17 14 14 12 12 14 12 12 10 10 9 5 1 8 11 12 13 13 10 9 9 8 5 11 10 12 15 16 16 15 14 15 17 18 17 17 19 18 18 21
20 17 14 15 13 12 9 6 6 8 9 10 10 10 10 11 3 1 3 2 1 4 4 5 4 4 9 12 12 11 11 11 11 12 13 16 16 16 16 18 19 20 21
18 16 12 10 10 8 7 6 5 5 6 10 14 13 15 15 11 9 8 8 10 10 8 8 8 10 12 11 11 11 11 11 12 16 18 19 21 22 21 19 19 19 22
15 15 13 11 9 9 7 8 6 10 17 17 18 17 16 17 16 16 12 12 11 11 9 10 11 11 12 12 11 9 10 12 15 17 17 16 16 15 15 16 17 19 20
12 13 13 12 12 10 10 10 13 19 19 18 19 19 17 14 12 12 10 13 9 6 7 5 6 6 11 12 12 10 11 16 15 13 13 15 15 14 12 11 13 16 18
9 12 12 12 10 12 15 16 20 19 18 14 13 15 15 12 13 12 13 11 9 7 6 8 9 11 11 11 11 12 13 12 10 12 13 13 13 15 16 17 16 17 19
9 10 10 11 12 12 12 12 12 11 10 10 9 8 7 7 8 8 7 5 3 5 6 7 9 11 11 9 12 13 12 12 12 11 12 13 15 15 18 17 17 16 17
9 9 9 9 10 9 9 9 9 8 6 6 6 6 6 7 9 10 10 9 7 6 7 8 10 10 10 9 10 11 11 13 13 12 14 15 16 16 14 15 19 23 19
9 8 8 9 9 11 11 9 10 10 6 6 7 6 5 7 8 9 9 8 9 8 6 7 8 9 9 10 11 12 12 13 13 15 15 17 17 17 18 18 18 20 18
10 8 7 8 9 10 12 15 15 14 11 12 10 8 7 6 4 4 4 5 6 8 8 10 10 10 11 12 13 14 13 15 16 18 18 18 18 20 20 22 19 19 20
8 8 7 8 9 10 10 10 12 11 11 12 13 11 10 8 7 7 6 9 12 11 12 11 11 12 11 12 13 14 15 16 17 18 18 19 20 21 22 22 22 22 22
9 11 9 8 9 10 9 9 7 6 6 6 12 13 12 12 13 13 12 11 10 14 12 11 11 11 12 13 13 14 15 16 18 19 19 20 20 21 23 22 22 22 24
10 9 10 10 10 11 10 10 8 7 7 7 6 8 10 13 16 17 17 13 11 10 11 10 10 10 11 12 13 13 15 16 17 18 18 19 20 22 24 24 26 26 26
8 11 11 11 12 10 10 10 9 8 7 7 7 7 7 9 10 11 12 11 10 9 9 9 10 11 12 13 14 15 16 18 18 20 20 22 21 22 24 26 27 27 27
13 13 12 10 10 10 9 10 9 8 7 6 6 6 9 7 7 8 8 8 8 8 8 9 10 10 11 12 14 15 16 17 18 19 21 22 24 26 26 28 30 30 30
16 15 14 13 11 10 9 8 8 7 7 6 4 3 9 6 6 6 6 6 7 7 7 8 9 10 11 12 13 15 16 17 18 20 21 22 24 25 27 29 31 33 32
17 16 16 14 13 12 10 8 7 5 4 3 4 3 3 2 2 3 3 4 4 5 6 7 8 9 11 11 12 13 15 16 17 19 23 25 25 24 27 30 31 32 32
20 19 18 17 15 14 12 11 9 8 6 5 4 3 2 1 1 1 3 4 4 5 6 7 9 11 12 13 13 14 14 15 20 21 22 26 28 28 28 30 31 33 35
22 21 20 19 18 18 14 13 11 10 10 8 7 5 5 4 3 3 4 4 5 7 7 9 9 11 13 17 17 17 19 27 26 27 28 27 27 31 32 32 32 33 34
24 24 24 22 20 18 16 15 15 13 12 10 10 8 8 7 6 6 6 6 6 8 9 10 11 14 16 17 17 23 27 28 32 31 30 32 33 35 32 33 35 36 37
Wind_Direction
216 216 219 221 220 223 227 230 245 243 246 256 246 234 246 244 226 235 233 225 232 234 237 237 246 250 263 265 268 267 266 261 279 294 302 310 322 328 330 331 326 322 317
224 224 223 225 226 224 228 235 238 218 254 276 260 252 248 241 223 229 227 240 243 238 247 250 259 240 249 248 253 257 266 270 277 289 303 308 310 318 326 331 332 329 327
232 228 233 233 230 222 228 233 239 243 240 255 252 246 251 240 247 245 237 238 246 251 253 251 254 268 256 246 257 265 267 262 262 276 297 299 304 311 319 321 319 323 330
86 93 193 218 223 216 222 228 232 237 230 228 238 248 259 260 254 257 255 261 260 256 262 270 268 263 265 259 263 266 266 270 276 283 291 296 295 308 310 316 324 326 324
212 131 152 178 183 180 185 184 184 183 193 203 218 235 242 253 258 260 265 271 262 268 271 265 273 281 280 279 275 277 274 280 282 286 289 292 294 307 314 317 314 317 319
185 164 148 138 130 129 132 135 132 125 126 133 128 152 218 225 247 250 252 258 259 265 274 278 282 287 294 284 282 285 287 274 270 280 286 292 294 299 305 308 313 315 315
169 170 168 160 148 133 127 125 116 108 102 95 91 88 94 284 272 253 247 246 258 263 280 293 299 304 279 288 290 287 287 284 281 284 282 284 292 295 299 299 300 300 297
144 152 165 162 152 149 145 136 122 115 108 103 96 99 85 61 43 277 231 213 133 72 69 53 51 355 340 328 325 310 301 297 294 286 277 281 286 291 292 293 294 295 294
128 134 143 138 156 155 170 175 178 126 116 117 117 97 92 81 72 71 88 114 97 90 76 59 41 22 359 354 348 336 323 313 307 303 297 291 289 290 291 289 287 290 294
119 119 122 121 117 128 126 124 132 141 125 124 119 112 98 84 77 74 76 78 80 90 87 76 57 43 23 11 5 357 338 327 324 321 318 314 309 306 312 294 282 280 287
105 112 109 109 112 112 117 118 125 128 125 119 109 101 90 80 81 81 73 67 63 43 57 52 46 40 33 11 9 1 345 333 329 325 324 324 322 322 323 312 299 291 290
111 110 108 111 102 111 114 114 126 129 127 117 109 91 86 80 75 76 71 72 53 47 41 37 36 24 25 355 358 348 346 352 339 338 333 333 335 335 331 320 311 302 290
116 106 103 105 106 108 107 109 104 110 105 96 85 89 85 61 40 55 65 57 37 20 5 13 2 2 358 346 342 347 2 352 348 347 340 337 335 327 328 327 325 316 311
114 114 111 106 104 96 90 87 90 84 90 94 87 75 52 36 16 6 1 355 348 342 335 343 352 358 4 2 359 3 2 355 350 344 338 332 338 340 338 346 346 342 325
119 118 114 113 107 98 91 83 86 81 106 100 78 62 41 35 16 15 10 9 7 5 20 17 28 22 6 5 359 360 359 358 358 351 348 338 329 329 327 332 335 336 334
132 129 131 129 126 119 108 93 88 94 94 95 108 113 72 75 47 42 72 47 39 47 50 47 36 30 20 5 4 356 352 349 341 336 331 325 323 323 324 324 320 323 322
142 130 132 126 122 126 132 136 118 93 93 87 84 87 94 86 67 58 67 59 47 54 51 41 32 23 13 3 360 355 345 344 340 336 332 325 320 319 318 317 318 320 316
143 148 135 130 128 124 123 119 122 138 128 96 66 70 72 68 60 60 76 58 45 41 41 31 21 11 3 357 351 345 342 340 338 336 331 324 322 320 317 316 316 314 314
158 150 138 134 127 125 122 124 126 121 107 97 90 57 44 47 41 40 49 52 45 37 30 25 14 5 357 350 345 339 335 332 331 331 329 326 323 319 313 308 306 305 308
166 159 151 146 141 140 135 128 122 112 100 89 74 56 39 43 39 35 37 38 35 29 18 10 2 356 351 346 342 338 335 333 332 329 325 322 320 317 315 309 306 302 297
176 175 171 163 157 153 145 133 124 113 101 87 76 52 61 59 48 37 29 25 20 14 5 358 350 346 343 338 336 333 330 328 327 325 321 318 317 315 313 307 304 306 309
187 186 183 180 172 164 157 145 138 128 122 111 99 63 58 48 42 34 23 13 3 358 349 342 337 334 333 328 325 324 322 320 319 317 313 311 311 310 308 305 303 302 299
197 198 197 194 186 178 170 172 171 166 156 142 131 117 92 61 46 29 6 351 339 333 329 324 322 321 319 314 310 308 309 309 309 308 306 302 299 298 299 296 295 295 291
204 203 201 200 196 196 197 196 193 199 205 210 202 185 171 192 239 290 313 321 325 321 317 311 310 312 312 314 313 312 309 310 314 310 308 302 296 295 294 292 286 282 282
210 209 208 206 206 207 210 212 213 212 218 224 231 220 218 226 241 264 288 299 310 317 320 314 310 310 314 320 317 314 311 323 328 324 322 311 299 299 296 291 287 284 281
219 214 215 214 212 211 213 217 222 225 228 231 237 238 240 245 254 261 270 284 299 305 308 311 312 320 324 324 322 324 328 330 331 327 323 319 310 306 301 295 293 289 287
Height
854 857 861 863 865 867 869 871 872 873 875 876 876 877 879 879 880 882 883 883 884 885 885 885 885 885 886 886 886 886 885 885 883 881 881 879 876 874 871 868 866 864 862
851 854 856 862 863 865 866 869 870 871 873 874 875 876 876 877 877 878 880 881 882 883 883 883 883 883 882 883 883 883 884 884 883 880 879 877 875 872 869 867 864 862 859
850 851 855 859 861 863 864 866 867 868 870 871 873 873 874 874 875 876 877 879 879 882 881 880 881 881 880 880 880 881 881 881 880 879 876 874 872 870 867 865 862 858 857
848 850 852 856 859 859 861 862 863 864 866 867 869 871 871 872 873 874 875 876 877 879 880 880 880 879 878 878 879 878 878 878 877 877 873 870 869 868 865 862 859 857 854
846 850 853 855 856 857 859 859 860 860 863 865 866 868 869 870 871 871 872 873 874 874 875 876 875 876 876 875 875 876 876 875 874 872 870 867 865 863 862 860 857 853 851
845 847 852 855 856 856 858 858 859 860 860 862 863 865 866 867 866 867 868 870 870 870 871 871 872 872 872 872 871 871 871 870 869 869 867 864 863 862 860 858 856 852 847
843 847 852 855 855 854 857 860 858 859 860 862 863 863 863 863 863 863 864 865 866 868 868 869 869 870 868 867 868 867 866 866 865 865 864 862 860 859 857 854 852 850 845
844 848 852 851 852 855 856 859 859 859 859 860 863 862 862 863 862 860 860 862 865 866 865 866 867 867 866 865 864 864 864 862 862 861 859 857 856 855 854 852 849 845 841
845 848 849 850 853 853 855 856 858 857 860 860 860 863 862 863 863 861 862 862 863 865 865 865 866 865 866 864 863 862 861 860 858 856 855 853 850 848 848 846 844 841 835
847 848 849 849 851 853 853 853 856 857 859 859 858 861 864 863 865 863 866 865 866 865 866 865 865 864 863 863 860 859 858 857 854 851 849 848 847 843 841 841 840 837 834
848 849 850 850 852 853 854 854 856 856 858 861 860 862 862 866 866 863 867 865 870 869 867 868 865 863 860 863 861 860 857 854 851 849 847 846 845 842 840 839 838 836 831
852 850 853 853 855 855 855 857 857 860 862 862 864 862 863 868 867 866 865 866 869 870 870 867 863 860 858 863 862 860 856 853 851 848 847 845 843 841 839 837 834 832 830
852 852 853 854 855 856 858 859 860 862 863 863 864 866 866 866 868 865 866 867 869 870 870 864 862 858 859 863 860 857 855 855 852 848 848 847 845 840 837 836 832 827 824
853 855 856 856 858 859 860 861 863 863 865 866 866 868 867 866 866 866 865 865 866 865 864 861 859 860 860 860 859 856 855 855 853 850 848 846 842 840 837 833 829 826 822
857 859 860 860 860 863 863 865 865 864 866 867 866 867 868 869 870 867 865 864 863 863 861 861 860 860 862 859 858 856 855 853 852 851 848 845 842 840 837 833 830 825 823
858 860 862 863 864 864 865 868 869 867 869 867 866 868 869 869 868 867 866 865 863 862 861 861 863 860 861 861 857 857 856 854 853 850 847 846 841 840 836 832 829 825 822
859 858 861 862 862 864 866 869 870 871 872 871 869 868 868 869 867 865 863 863 862 862 862 863 864 862 862 862 858 857 857 854 852 851 847 844 841 837 834 830 827 826 820
858 860 860 862 863 864 866 867 870 873 873 872 870 869 869 867 867 865 864 865 864 863 866 866 865 865 864 862 861 860 856 854 853 850 847 845 840 837 834 831 829 826 822
860 860 860 863 864 865 867 869 872 874 874 873 873 872 871 869 867 866 865 866 867 869 867 867 868 867 865 864 861 859 857 855 853 849 846 843 840 837 833 829 825 823 820
859 859 863 864 865 867 868 869 871 872 873 873 873 872 871 871 871 870 869 869 869 869 869 869 867 866 864 862 861 858 856 853 849 847 844 842 839 835 831 826 824 821 817
860 862 864 866 865 866 868 868 869 871 872 873 873 872 870 871 872 872 871 871 870 870 869 868 867 865 863 862 860 857 854 852 849 846 844 840 836 832 829 826 823 818 811
859 861 862 863 865 866 867 868 870 870 871 871 873 872 870 872 871 871 872 871 870 869 868 867 866 865 862 860 858 855 852 850 848 845 842 838 835 831 827 823 818 812 806
856 858 861 862 863 863 864 867 869 870 871 871 870 869 869 871 872 871 871 871 869 868 867 865 863 862 861 858 855 852 849 847 844 840 837 833 830 826 823 818 812 806 801
852 854 856 858 859 861 863 865 864 867 870 871 870 867 866 869 869 869 869 868 866 865 863 862 860 858 856 853 850 848 846 842 839 834 830 825 820 817 812 807 802 796 790
845 848 851 853 856 857 859 861 862 862 866 866 868 864 864 865 864 864 865 864 863 861 859 858 856 853 850 847 845 843 841 836 832 826 821 816 811 806 801 796 790 784 779
839 841 845 848 850 851 852 856 858 859 860 860 862 860 860 859 859 860 861 860 859 858 855 852 849 846 844 841 839 837 833 828 824 819 814 808 802 797 791 785 779 774 767